Location: Marstown
(39.5056°N, 77.0820°W)
Time: 07:08:00
(UTC-04:00)

Amateur Radio Satellites - All Passes

Search period start: 26 May 2017 06:38
Search period end: 27 May 2017 06:38
Location: Marstown, 39.5056°N, 77.0820°W

Satellite Date Start Highest point End Downlink Frequencies (MHz)
Time Altitude Azimuth
XW-2D 26 May 06:42:37 06:45:59 28° 96° (E) 06:49:19 145.860 - 145.880
XW-2B 26 May 06:50:25 06:53:57 34° 97° (E) 06:57:27 145.730 - 145.750
DOVE 4 26 May 06:52:51 06:57:01 72° 103° (ESE) 07:01:17 437.250
RS-15 26 May 07:00:50 07:09:34 21° 349° (N) 07:18:15 29.354- 29.394
PCSat 26 May 07:02:36 07:03:34 10° 259° (WSW) 07:04:32 145.827
XW-2F 26 May 07:03:20 07:07:03 48° 99° (E) 07:10:46 145.980 - 146.000
XW-2C 26 May 07:03:52 07:07:38 52° 99° (E) 07:11:23 145.795 - 145.815
NUDT-PHONESAT 26 May 07:04:24 07:07:57 39° 98° (E) 07:11:29 437.300
AO-7 26 May 07:05:21 07:10:44 19° 309° (NW) 07:16:07 .
BEESAT 2 26 May 07:09:51 07:13:42 49° 305° (NW) 07:17:38 435.950
KAITUO 1B 26 May 07:11:57 07:15:40 50° 99° (E) 07:19:20 145.475/437.950
SO-50 26 May 07:15:20 07:19:26 33° 51° (NE) 07:23:31 436.795
HO-68 26 May 07:26:49 07:32:09 22° 93° (E) 07:37:26 435.675
CUTE 1.7 + AOD 2 26 May 07:28:49 07:30:58 14° 91° (E) 07:33:06 437.475
STRAND 1 26 May 07:31:57 07:36:58 66° 74° (ENE) 07:42:03 437.568
BEESAT 3 26 May 07:33:49 07:35:50 13° 317° (NW) 07:37:51 437.485
LilacSat-2 26 May 07:41:22 07:45:07 47° 286° (WNW) 07:48:50 437.200
XW-2A 26 May 07:44:55 07:46:57 15° 94° (E) 07:48:57 145.665 - 145.685
SRMSAT 26 May 07:49:51 07:50:46 10° 177° (S) 07:51:40 437.500
CUTE-I 26 May 07:56:47 08:02:04 61° 287° (WNW) 08:07:18 437.470
M-CUBED/EXP-1 PRIME 26 May 07:58:36 08:02:25 33° 67° (ENE) 08:06:00 437.505
CUBEBUG 2 26 May 07:59:57 08:02:53 16° 92° (E) 08:05:50 437.445
UWE-3 26 May 08:12:09 08:14:20 13° 91° (E) 08:16:32 435.000/436.395/437.385
XW-2D 26 May 08:17:13 08:19:58 19° 292° (WNW) 08:22:41 145.860 - 145.880
SEEDS 26 May 08:17:51 08:21:37 31° 96° (E) 08:25:19 437.485
XW-2B 26 May 08:25:27 08:27:50 16° 293° (WNW) 08:30:14 145.730 - 145.750
XW-2F 26 May 08:39:19 08:40:44 12° 295° (WNW) 08:42:09 145.980 - 146.000
NUDT-PHONESAT 26 May 08:39:34 08:41:30 14° 294° (WNW) 08:43:25 437.300
XW-2C 26 May 08:40:11 08:41:21 11° 295° (WNW) 08:42:31 145.795 - 145.815
Oscar 11 26 May 08:47:39 08:49:09 12° 90° (E) 08:50:39 .
KAITUO 1B 26 May 08:48:03 08:49:12 11° 295° (WNW) 08:50:20 145.475/437.950
SO-50 26 May 08:55:59 08:59:45 26° 247° (WSW) 09:03:31 436.795
NO-84 26 May 08:59:47 09:04:06 60° 133° (SE) 09:08:20 435.350 FM
CUTE 1.7 + AOD 2 26 May 09:02:57 09:07:03 47° 287° (WNW) 09:11:07 437.475
UNISAT 6 26 May 09:11:08 09:13:18 14° 64° (ENE) 09:15:29 437.425
AO-73 26 May 09:11:33 09:15:33 30° 96° (E) 09:19:32 145.935
HO-68 26 May 09:13:14 09:20:22 67° 290° (WNW) 09:27:28 435.675
STRAND 1 26 May 09:14:07 09:16:36 14° 269° (W) 09:19:05 437.568
XW-2A 26 May 09:16:45 09:19:43 27° 288° (WNW) 09:22:40 145.665 - 145.685
RS-15 26 May 09:18:15 09:28:09 27° 26° (NNE) 09:37:45 29.354- 29.394
AAUSAT CUBESAT 2 26 May 09:18:50 09:22:59 75° 102° (ESE) 09:27:05 437.432
ZACube-1 26 May 09:24:56 09:29:20 46° 99° (E) 09:33:44 437.345
PRISM 26 May 09:26:27 09:29:52 26° 69° (ENE) 09:33:19 437.425
M-CUBED/EXP-1 PRIME 26 May 09:33:41 09:36:50 20° 259° (W) 09:39:52 437.505
CUBEBUG 2 26 May 09:35:16 09:39:40 47° 287° (WNW) 09:44:09 437.445
DELFI C3 26 May 09:44:12 09:45:47 12° 91° (E) 09:47:21 145.870
UWE-3 26 May 09:46:35 09:51:05 58° 286° (WNW) 09:55:39 435.000/436.395/437.385
FO-29 26 May 09:51:21 09:56:11 41° 69° (ENE) 10:01:06 435.910
SEEDS 26 May 09:53:56 09:57:05 21° 292° (WNW) 10:00:12 437.485
EO-88 26 May 09:55:22 09:56:08 11° 91° (E) 09:56:54 145.990 - 145.960
TIGRISAT 26 May 10:13:42 10:17:53 61° 75° (ENE) 10:22:10 435.000
Oscar 11 26 May 10:21:20 10:25:38 58° 285° (WNW) 10:29:53 .
NO-84 26 May 10:38:23 10:41:59 25° 329° (NNW) 10:45:29 435.350 FM
UNISAT 6 26 May 10:45:23 10:49:32 52° 260° (W) 10:53:46 437.425
QB50P2 26 May 10:45:54 10:46:13 10° 62° (ENE) 10:46:31 145.880/145.840
AO-73 26 May 10:47:54 10:51:38 26° 291° (WNW) 10:55:22 145.935
PRISM 26 May 11:01:44 11:05:05 24° 264° (W) 11:08:26 437.425
ZACube-1 26 May 11:02:15 11:05:13 17° 294° (WNW) 11:08:12 437.345
HO-68 26 May 11:03:56 11:06:45 13° 309° (NW) 11:09:34 435.675
AIST 2D 26 May 11:09:40 11:12:45 29° 72° (ENE) 11:15:51 435.315
DELFI C3 26 May 11:17:02 11:20:47 44° 287° (WNW) 11:24:31 145.870
EO-79 26 May 11:19:55 11:23:12 23° 68° (ENE) 11:26:30 145.935-145.965
EO-88 26 May 11:26:31 11:30:03 44° 286° (WNW) 11:33:33 145.990 - 145.960
RS-15 26 May 11:31:13 11:43:28 70° 54° (NE) 11:55:02 29.354- 29.394
FO-29 26 May 11:37:40 11:41:31 21° 267° (W) 11:45:26 435.910
YUBILEINY 26 May 11:47:41 11:55:16 31° 70° (ENE) 12:02:47 435.215
TIGRISAT 26 May 11:54:19 11:55:00 10° 270° (W) 11:55:41 435.000
NANOSAT C BR1 26 May 12:04:24 12:08:32 67° 75° (ENE) 12:12:42 145.865
POLYITAN 1 26 May 12:08:32 12:12:43 84° 77° (ENE) 12:16:56 437.675
ESTCUBE 1 26 May 12:08:43 12:12:53 36° 98° (E) 12:16:59 437.505/2401.250
LO-87 26 May 12:10:50 12:14:24 75° 102° (ESE) 12:17:57 145.935 - 145.965
DUCHIFAT 1 26 May 12:15:18 12:19:26 81° 78° (ENE) 12:23:38 145.980
QB50P2 26 May 12:17:13 12:21:23 70° 259° (W) 12:25:35 145.880/145.840
BUGSAT 1 26 May 12:35:22 12:39:04 38° 72° (ENE) 12:42:48 437.445
Gurwin Techsat 1B 26 May 12:41:59 12:44:13 13° 60° (ENE) 12:46:28 435.225
AIST 2D 26 May 12:44:01 12:46:00 14° 267° (W) 12:48:01 435.315
AO-85 26 May 12:53:42 12:56:17 16° 46° (NE) 12:58:57 145.980
EO-79 26 May 12:55:13 12:58:49 28° 264° (W) 13:02:26 145.935-145.965
SPROUT 26 May 13:02:51 13:06:47 35° 98° (E) 13:10:43 437.525
Oscar 19 26 May 13:04:11 13:08:46 33° 68° (ENE) 13:13:23 437.125/150
VELOX 1 26 May 13:06:03 13:10:08 37° 98° (E) 13:14:11 145.980
50 SAT 26 May 13:27:27 13:30:29 30° 98° (E) 13:33:29 437.505
UKube-1 26 May 13:36:23 13:39:23 18° 94° (E) 13:42:22 .
O/OREOS (USA 219) 26 May 13:39:03 13:42:53 27° 60° (ENE) 13:46:42 437.305
DX 1 26 May 13:42:45 13:46:38 32° 98° (E) 13:50:30 434.975-435.025
YUBILEINY 26 May 13:43:54 13:52:29 58° 269° (W) 14:01:02 435.215
RS-15 26 May 13:44:49 13:54:57 34° 256° (WSW) 14:04:41 29.354- 29.394
ESTCUBE 1 26 May 13:46:04 13:49:26 21° 293° (WNW) 13:52:46 437.505/2401.250
ITAMSAT 1 26 May 14:08:45 14:10:13 11° 59° (ENE) 14:11:40 435.822/435.867
BEESAT 3 26 May 14:11:42 14:15:15 29° 51° (NE) 14:18:45 437.485
BUGSAT 1 26 May 14:12:18 14:14:36 15° 267° (W) 14:16:53 437.445
AO-7 26 May 14:18:03 14:24:41 28° 56° (ENE) 14:31:20 .
Gurwin Techsat 1B 26 May 14:18:06 14:23:25 84° 257° (WSW) 14:28:46 435.225
AO-85 26 May 14:32:58 14:36:55 51° 242° (WSW) 14:41:05 145.980
SPROUT 26 May 14:39:23 14:42:26 19° 293° (WNW) 14:45:29 437.525
VELOX 1 26 May 14:43:11 14:46:18 19° 294° (WNW) 14:49:24 145.980
Oscar 19 26 May 14:43:35 14:48:03 29° 264° (W) 14:52:33 437.125/150
50 SAT 26 May 15:01:18 15:03:04 14° 293° (WNW) 15:04:49 437.505
UKube-1 26 May 15:11:33 15:15:30 36° 289° (WNW) 15:19:26 .
O/OREOS (USA 219) 26 May 15:18:24 15:22:13 28° 257° (WSW) 15:26:00 437.305
DX 1 26 May 15:19:19 15:22:37 22° 293° (WNW) 15:25:54 434.975-435.025
BEESAT 2 26 May 15:28:06 15:32:10 69° 57° (ENE) 15:36:10 435.950
NO-84 26 May 15:35:31 15:38:49 27° 32° (NNE) 15:41:51 435.350 FM
ITUPSAT 1 26 May 15:41:52 15:46:19 36° 98° (E) 15:50:44 437.325
ITAMSAT 1 26 May 15:43:42 15:48:52 88° 77° (ENE) 15:54:04 435.822/435.867
BEESAT 3 26 May 15:49:28 15:52:42 23° 248° (WSW) 15:55:52 437.485
MOZHAYETS 4 26 May 15:59:33 16:03:43 32° 96° (E) 16:07:52
AO-7 26 May 16:08:33 16:16:46 68° 255° (WSW) 16:25:04 .
BEESAT 26 May 16:15:17 16:20:07 84° 103° (ESE) 16:24:54 436.000
CUBESAT XI-V 26 May 16:45:53 16:48:59 18° 92° (E) 16:52:04 437.345
KKS-1 26 May 16:54:48 16:57:42 17° 93° (E) 17:00:36 437.445
NO-84 26 May 17:13:07 17:16:23 32° 232° (SW) 17:19:24 435.350 FM
ITUPSAT 1 26 May 17:20:09 17:23:54 23° 294° (WNW) 17:27:40 437.325
XW-2D 26 May 17:24:21 17:26:10 13° 66° (ENE) 17:27:58 145.860 - 145.880
STARS 26 May 17:26:16 17:28:55 16° 93° (E) 17:31:34 437.465
XW-2B 26 May 17:31:46 17:34:02 15° 67° (ENE) 17:36:20 145.730 - 145.750
MOZHAYETS 4 26 May 17:36:58 17:40:42 24° 293° (WNW) 17:44:25
CUTE-I 26 May 17:39:02 17:43:16 25° 65° (ENE) 17:47:31 437.470
NUDT-PHONESAT 26 May 17:43:42 17:46:02 16° 68° (ENE) 17:48:23 437.300
XW-2F 26 May 17:43:47 17:46:39 20° 69° (ENE) 17:49:30 145.980 - 146.000
XW-2C 26 May 17:44:37 17:47:36 22° 69° (ENE) 17:50:35 145.795 - 145.815
KAITUO 1B 26 May 17:51:31 17:54:21 21° 69° (ENE) 17:57:13 145.475/437.950
BEESAT 26 May 17:55:57 17:57:09 11° 300° (WNW) 17:58:21 436.000
HO-68 26 May 17:56:29 18:00:33 16° 54° (NE) 18:04:37 435.675
DOVE 4 26 May 17:57:00 18:01:36 65° 76° (ENE) 18:05:58 437.250
AO-7 26 May 18:09:10 18:10:55 11° 273° (W) 18:12:39 .
PCSat 26 May 18:16:24 18:18:43 13° 103° (ESE) 18:21:02 145.827
LilacSat-2 26 May 18:21:41 18:25:29 69° 76° (ENE) 18:29:21 437.200
CUBESAT XI-V 26 May 18:22:09 18:26:33 43° 288° (WNW) 18:30:54 437.345
KKS-1 26 May 18:30:15 18:34:25 41° 289° (WNW) 18:38:34 437.445
XW-2D 26 May 18:56:20 18:59:57 42° 262° (W) 19:03:36 145.860 - 145.880
CUBEBUG 2 26 May 18:59:06 19:00:19 11° 63° (ENE) 19:01:32 437.445
STARS 26 May 19:01:17 19:05:27 44° 288° (WNW) 19:09:37 437.465
XW-2B 26 May 19:04:26 19:07:55 35° 262° (W) 19:11:27 145.730 - 145.750
SEEDS 26 May 19:08:56 19:12:03 20° 67° (ENE) 19:15:10 437.485
NUDT-PHONESAT 26 May 19:16:21 19:19:40 31° 263° (W) 19:23:02 437.300
XW-2F 26 May 19:17:27 19:20:36 25° 264° (W) 19:23:49 145.980 - 146.000
CUTE-I 26 May 19:18:05 19:23:03 40° 262° (W) 19:28:03 437.470
XW-2C 26 May 19:18:35 19:21:40 23° 265° (W) 19:24:47 145.795 - 145.815
KAITUO 1B 26 May 19:25:06 19:28:13 24° 264° (W) 19:31:22 145.475/437.950
DOVE 4 26 May 19:38:26 19:39:37 11° 269° (W) 19:40:46 437.250
HO-68 26 May 19:40:01 19:47:11 83° 73° (ENE) 19:54:25 435.675
STRAND 1 26 May 19:43:56 19:48:04 24° 95° (E) 19:52:12 437.568
XW-2A 26 May 19:46:21 19:49:41 76° 77° (ENE) 19:53:04 145.665 - 145.685
Tancredo 1 26 May 19:48:34 19:51:02 22° 133° (SE) 19:53:31 437.200
CUTE 1.7 + AOD 2 26 May 19:53:53 19:58:10 80° 258° (WSW) 20:02:29 437.475
PCSat 26 May 19:55:56 20:01:21 79° 299° (WNW) 20:06:49 145.827
AO-73 26 May 20:06:43 20:09:46 20° 67° (ENE) 20:12:53 145.935
AAUSAT CUBESAT 2 26 May 20:07:38 20:11:35 42° 73° (ENE) 20:15:32 437.432
ISS 26 May 20:19:35 20:22:31 30° 135° (SE) 20:25:28 437.550
ZACube-1 26 May 20:19:59 20:23:40 30° 70° (ENE) 20:27:26 437.345
CUBEBUG 2 26 May 20:32:16 20:36:21 62° 259° (W) 20:40:33 437.445
UWE-3 26 May 20:42:22 20:46:32 82° 260° (W) 20:50:49 435.000/436.395/437.385
SEEDS 26 May 20:43:40 20:47:30 33° 263° (W) 20:51:22 437.485
M-CUBED/EXP-1 PRIME 26 May 21:12:36 21:15:07 20° 101° (E) 21:17:37 437.505
Oscar 11 26 May 21:14:34 21:18:54 88° 249° (WSW) 21:23:17 .
STRAND 1 26 May 21:22:34 21:27:20 39° 290° (WNW) 21:32:04 437.568
Tancredo 1 26 May 21:23:50 21:26:40 33° 329° (NNW) 21:29:30 437.200
SO-50 26 May 21:31:12 21:33:00 12° 108° (ESE) 21:34:47 436.795
HO-68 26 May 21:31:24 21:35:40 17° 270° (W) 21:39:58 435.675
AO-73 26 May 21:41:57 21:45:46 33° 264° (W) 21:49:39 145.935
PCSat 26 May 21:42:54 21:45:39 14° 318° (NW) 21:48:23 145.827
AAUSAT CUBESAT 2 26 May 21:44:48 21:47:13 15° 268° (W) 21:49:38 437.432
ISS 26 May 21:56:01 21:59:00 30° 331° (NNW) 22:01:58 437.550
ZACube-1 26 May 21:56:45 21:59:58 21° 266° (W) 22:03:15 437.345
DELFI C3 26 May 22:00:44 22:04:44 85° 74° (ENE) 22:08:44 145.870
EO-88 26 May 22:02:48 22:06:24 61° 76° (ENE) 22:10:02 145.990 - 145.960
TIGRISAT 26 May 22:07:05 22:09:43 15° 92° (E) 22:12:21 435.000
UNISAT 6 26 May 22:37:33 22:41:46 34° 97° (E) 22:46:01 437.425
PRISM 26 May 22:42:58 22:46:53 45° 99° (E) 22:50:47 437.425
FO-29 26 May 22:43:45 22:50:03 47° 99° (E) 22:57:02 435.910
LO-87 26 May 22:46:20 22:49:14 24° 71° (ENE) 22:52:09 145.935 - 145.965
M-CUBED/EXP-1 PRIME 26 May 22:47:10 22:49:30 18° 296° (WNW) 22:51:47 437.505
Tancredo 1 26 May 23:02:20 23:03:09 11° 348° (NNW) 23:03:58 437.200
ESTCUBE 1 26 May 23:07:15 23:11:12 30° 69° (ENE) 23:15:09 437.505/2401.250
SO-50 26 May 23:08:19 23:12:53 69° 303° (WNW) 23:17:26 436.795
ISS 26 May 23:35:09 23:36:18 11° 350° (N) 23:37:28 437.550
TIGRISAT 26 May 23:42:10 23:46:38 52° 287° (WNW) 23:51:10 435.000
NANOSAT C BR1 26 May 23:51:42 23:53:07 11° 91° (E) 23:54:31 145.865
SPROUT 26 May 23:55:32 23:58:56 24° 69° (ENE) 00:02:22 437.525
POLYITAN 1 26 May 23:55:32 23:57:56 15° 92° (E) 00:00:20 437.675
50 SAT 27 May 00:00:57 00:01:49 11° 66° (ENE) 00:02:42 437.505
DUCHIFAT 1 27 May 00:01:39 00:03:47 14° 92° (E) 00:05:55 145.980
VELOX 1 27 May 00:02:21 00:06:12 30° 69° (ENE) 00:10:02 145.980
QB50P2 27 May 00:03:36 00:06:44 20° 94° (E) 00:09:52 145.880/145.840
AIST 2D 27 May 00:08:14 00:11:38 41° 98° (E) 00:15:00 435.315
UNISAT 6 27 May 00:14:39 00:18:16 23° 292° (WNW) 00:21:55 437.425
PRISM 27 May 00:19:39 00:21:46 14° 295° (WNW) 00:23:53 437.425
LO-87 27 May 00:20:11 00:22:39 18° 266° (W) 00:25:07 145.935 - 145.965
FO-29 27 May 00:29:19 00:34:52 32° 293° (WNW) 00:41:00 435.910
UKube-1 27 May 00:30:38 00:33:03 15° 64° (ENE) 00:35:29 .
DX 1 27 May 00:37:28 00:41:03 25° 68° (ENE) 00:44:38 434.975-435.025
EO-79 27 May 00:39:54 00:44:01 46° 100° (E) 00:48:08 145.935-145.965
ESTCUBE 1 27 May 00:44:16 00:47:58 25° 265° (W) 00:51:42 437.505/2401.250
YUBILEINY 27 May 00:47:45 00:55:22 35° 85° (E) 01:03:01 435.215
SO-50 27 May 00:53:05 00:54:10 11° 322° (NW) 00:55:15 436.795
ISS 27 May 01:12:38 01:13:58 12° 11° (N) 01:15:19 437.550
Oscar 19 27 May 01:18:45 01:20:27 11° 90° (E) 01:22:08 437.125/150
NANOSAT C BR1 27 May 01:24:59 01:29:09 56° 286° (WNW) 01:33:18 145.865
POLYITAN 1 27 May 01:29:51 01:33:55 45° 287° (WNW) 01:38:01 437.675
50 SAT 27 May 01:31:00 01:34:17 41° 261° (W) 01:37:35 437.505
SPROUT 27 May 01:31:08 01:34:43 27° 264° (W) 01:38:20 437.525
DUCHIFAT 1 27 May 01:35:36 01:39:41 47° 287° (WNW) 01:43:46 145.980
QB50P2 27 May 01:38:45 01:42:34 33° 289° (WNW) 01:46:24 145.880/145.840
VELOX 1 27 May 01:39:05 01:42:37 23° 265° (W) 01:46:10 145.980
AIST 2D 27 May 01:43:12 01:44:27 11° 294° (WNW) 01:45:41 435.315
RS-15 27 May 01:52:19 02:03:35 49° 109° (ESE) 02:15:08 29.354- 29.394
BUGSAT 1 27 May 01:52:30 01:56:38 79° 103° (ESE) 02:00:49 437.445
UKube-1 27 May 02:04:30 02:08:40 48° 260° (W) 02:12:51 .
DX 1 27 May 02:13:26 02:17:07 27° 263° (W) 02:20:50 434.975-435.025
Tancredo 1 27 May 02:13:59 02:16:39 26° 28° (NNE) 02:19:17 437.200
EO-79 27 May 02:16:58 02:19:22 15° 295° (WNW) 02:21:47 145.935-145.965
Gurwin Techsat 1B 27 May 02:35:24 02:40:25 41° 98° (E) 02:45:25 435.225
YUBILEINY 27 May 02:43:31 02:51:50 48° 284° (WNW) 03:00:17 435.215
ITUPSAT 1 27 May 02:47:34 02:51:58 39° 70° (ENE) 02:56:25 437.325
ISS 27 May 02:48:11 02:51:14 35° 30° (NNE) 02:54:16 437.550
Oscar 19 27 May 02:55:08 03:00:19 77° 286° (WNW) 03:05:26 437.125/150
MOZHAYETS 4 27 May 03:00:32 03:04:26 28° 69° (ENE) 03:08:22
PCSat 27 May 03:03:39 03:05:43 12° 40° (NE) 03:07:46 145.827
BEESAT 27 May 03:20:28 03:25:14 87° 72° (ENE) 03:30:01 436.000
CUBESAT XI-V 27 May 03:48:34 03:51:33 17° 65° (ENE) 03:54:33 437.345
Tancredo 1 27 May 03:49:38 03:52:25 31° 225° (SW) 03:55:10 437.200
O/OREOS (USA 219) 27 May 03:50:03 03:54:15 36° 105° (ESE) 03:58:27 437.305
KKS-1 27 May 03:52:34 03:55:06 15° 64° (ENE) 03:57:37 437.445
ITAMSAT 1 27 May 03:57:43 04:02:25 33° 97° (E) 04:07:06 435.822/435.867
RS-15 27 May 04:04:11 04:16:00 54° 312° (NW) 04:28:06 29.354- 29.394
AO-7 27 May 04:11:13 04:19:07 44° 100° (E) 04:26:58 .
Gurwin Techsat 1B 27 May 04:15:52 04:20:06 25° 295° (WNW) 04:24:19 435.225
STARS 27 May 04:22:49 04:24:54 13° 63° (ENE) 04:26:59 437.465
ISS 27 May 04:24:52 04:27:37 25° 227° (SW) 04:30:20 437.550
ITUPSAT 1 27 May 04:26:20 04:29:54 21° 266° (W) 04:33:31 437.325
MOZHAYETS 4 27 May 04:37:37 04:41:31 27° 265° (W) 04:45:27
PCSat 27 May 04:44:44 04:50:10 67° 60° (ENE) 04:55:32 145.827
AO-85 27 May 04:46:21 04:50:29 59° 119° (ESE) 04:54:27 145.980
JUGNU 27 May 05:07:43 05:08:52 11° 179° (S) 05:10:00 437.505
BEESAT 2 27 May 05:20:06 05:22:15 14° 109° (ESE) 05:24:26 435.950
CUBESAT XI-V 27 May 05:23:56 05:28:30 50° 261° (W) 05:33:05 437.345
KKS-1 27 May 05:26:55 05:31:12 50° 260° (W) 05:35:31 437.445
O/OREOS (USA 219) 27 May 05:30:08 05:33:44 22° 302° (WNW) 05:37:20 437.305
BEESAT 3 27 May 05:37:10 05:41:05 67° 118° (ESE) 05:45:04 437.485
ITAMSAT 1 27 May 05:37:18 05:41:45 29° 293° (WNW) 05:46:11 435.822/435.867
STARS 27 May 05:56:28 06:00:44 56° 259° (W) 06:05:02 437.465
DOVE 4 27 May 05:57:27 06:00:08 16° 93° (E) 06:02:50 437.250
SO-50 27 May 06:01:59 06:03:41 12° 39° (NE) 06:05:22 436.795
AO-7 27 May 06:04:07 06:11:46 42° 298° (WNW) 06:19:26 .
AO-85 27 May 06:28:56 06:31:12 14° 315° (NW) 06:33:26 145.980
PCSat 27 May 06:29:48 06:32:56 16° 256° (WSW) 06:36:03 145.827
XW-2D 27 May 06:30:12 06:33:05 20° 94° (E) 06:35:56 145.860 - 145.880
